Temp
51 45 42 44 48 49 46 44 43 47 55 52 49 48 52 56 54 54 55 57 60 62 65 63 61 59 58 57 57 58 59 60 60 59 59 60 61 62 63 64 67 70 70 69
45 42 48 52 51 49 47 43 41 49 53 49 48 47 51 53 54 55 55 56 57 58 61 58 57 54 53 53 54 56 58 58 58 58 58 60 61 62 64 64 67 68 67 67
43 47 52 50 47 46 45 43 42 44 49 49 45 43 48 54 57 60 61 60 59 60 60 55 53 50 50 50 51 55 55 55 56 57 58 60 61 61 64 66 65 65 66 65
45 52 49 47 45 46 40 49 48 46 41 34 43 32 43 50 52 54 58 61 58 59 58 55 52 49 49 48 50 52 53 54 56 55 55 56 58 58 59 61 58 57 57 57
42 44 45 44 47 50 44 51 48 47 40 37 39 33 38 47 45 50 55 55 59 57 54 51 50 50 49 49 48 49 51 51 52 53 54 53 54 57 58 57 55 55 54 54
44 49 49 49 52 52 53 48 46 44 43 32 38 36 34 44 50 50 53 53 52 50 49 49 49 49 47 47 47 47 48 48 50 50 52 53 54 55 53 53 52 52 51 51
41 43 48 51 46 49 48 41 26 29 29 28 38 35 42 46 51 52 53 50 49 49 48 47 46 45 45 45 46 48 46 45 46 47 49 52 52 52 51 50 50 49 49 48
32 29 44 48 46 43 43 43 31 23 24 28 37 30 37 50 56 55 54 50 49 48 48 46 46 45 45 46 44 44 44 43 44 44 44 46 48 48 47 47 46 45 46 45
33 32 45 47 49 49 41 37 45 33 27 26 32 37 46 49 48 47 48 48 47 47 47 46 46 45 44 43 43 43 43 42 43 42 41 41 41 41 40 40 41 40 41 45
40 29 42 44 48 48 44 47 35 33 23 15 26 30 36 41 45 46 46 46 45 46 45 45 44 43 42 42 42 42 41 40 40 40 40 39 39 39 38 38 37 38 38 39
43 38 35 42 39 40 41 39 40 40 33 26 23 28 43 49 49 48 49 48 47 45 44 44 42 41 41 40 40 39 39 39 38 38 38 37 36 36 36 36 36 36 37 37
44 39 30 37 44 48 48 43 42 31 26 31 30 33 48 48 47 50 49 49 47 45 43 42 41 40 39 38 38 37 37 37 37 37 36 35 35 34 33 33 33 34 34 36
45 36 27 30 38 41 38 43 44 42 34 31 28 34 52 52 51 50 48 46 45 43 42 42 40 39 38 37 36 35 35 35 35 35 33 33 32 32 31 31 32 33 33 33
49 37 35 31 33 37 34 39 41 39 33 34 34 37 46 46 45 44 45 47 44 44 44 43 41 40 39 38 36 35 34 34 33 32 31 30 30 30 30 31 31 31 32 32
43 32 38 39 37 37 38 38 39 36 38 33 38 37 43 47 48 48 48 48 44 43 44 43 41 40 39 36 36 35 33 32 32 30 29 28 29 29 29 29 29 30 30 31
42 29 34 29 36 36 33 37 39 40 40 40 40 39 50 52 52 47 49 49 46 46 45 45 44 42 39 38 36 35 32 31 31 29 28 28 28 29 28 28 28 29 29 29
39 35 31 27 32 32 28 34 38 39 41 40 34 42 49 48 50 51 52 51 48 49 47 46 45 44 43 39 37 33 31 30 28 28 28 28 28 27 27 27 27 27 26 27
35 35 32 30 25 21 36 42 43 41 43 44 45 47 49 51 53 53 52 49 50 50 50 49 48 45 42 39 35 31 30 29 28 27 27 27 27 26 27 27 26 26 26 25
37 33 29 28 27 30 34 39 36 36 37 45 44 47 49 51 50 48 54 53 51 52 51 50 48 44 37 34 32 30 28 28 27 26 26 27 26 25 25 25 24 25 25 25
36 36 33 20 24 19 36 45 45 42 29 45 47 46 46 47 38 45 52 47 48 49 48 44 38 32 31 28 30 29 27 26 25 26 27 27 26 25 24 24 23 24 25 25
30 30 28 29 26 26 36 38 41 27 34 41 45 46 44 40 44 46 39 41 34 35 32 31 31 30 29 28 29 26 25 24 26 27 25 24 24 23 23 22 22 22 23 23
26 26 27 26 25 23 37 35 33 39 37 36 36 39 39 38 38 37 35 32 29 27 26 26 25 23 24 27 27 24 23 24 23 21 20 20 20 22 21 20 20 21 21 19
23 29 23 27 27 36 36 38 37 38 38 36 34 36 38 36 35 35 32 27 26 24 23 24 22 21 22 24 25 22 20 20 19 18 18 17 19 19 19 18 18 18 19 17
30 33 28 30 34 33 35 36 36 36 36 37 34 34 33 33 33 32 30 26 23 22 21 20 20 19 19 21 24 21 20 19 18 16 16 16 16 16 18 19 19 17 14 14
29 31 30 32 34 34 36 35 32 30 29 30 31 30 30 28 29 29 28 25 23 22 20 20 19 18 18 18 17 18 17 16 15 15 15 15 15 16 16 17 16 16 16 15
31 34 30 31 39 35 37 30 28 28 27 26 26 26 27 28 26 26 25 22 20 18 18 17 17 17 14 14 12 12 14 15 14 13 14 14 14 15 14 14 15 20 19 21
MSLP
1017.84 1018.01 1017.61 1017.63 1017.82 1017.92 1018.08 1018.07 1017.87 1017.41 1016.67 1016.57 1016.36 1016.26 1016.11 1015.77 1015.57 1015.60 1015.81 1015.55 1015.28 1015.04 1014.90 1015.31 1015.87 1016.31 1016.52 1016.64 1016.51 1016.49 1016.39 1016.30 1016.23 1016.04 1015.91 1015.63 1015.33 1015.17 1015.29 1015.25 1015.30 1015.31 1015.58 1016.05
1018.29 1017.47 1017.61 1017.72 1017.91 1018.12 1018.22 1018.32 1018.12 1017.59 1017.06 1016.95 1016.62 1016.20 1015.73 1015.58 1015.26 1015.15 1015.29 1015.22 1015.15 1015.26 1015.36 1015.93 1016.33 1016.78 1017.07 1017.16 1017.01 1016.84 1016.77 1016.74 1016.59 1016.41 1015.97 1015.44 1015.06 1014.64 1014.50 1014.61 1014.82 1014.89 1015.21 1015.47
1017.73 1017.22 1017.31 1017.49 1017.70 1018.07 1018.15 1018.20 1018.35 1018.25 1017.58 1017.25 1017.19 1016.18 1015.70 1014.95 1014.38 1014.16 1014.04 1014.22 1014.56 1014.80 1015.19 1016.06 1016.67 1017.20 1017.45 1017.44 1017.38 1017.22 1017.25 1017.14 1016.89 1016.43 1015.79 1014.99 1014.71 1014.66 1014.58 1014.66 1014.91 1015.08 1015.23 1015.44
1018.06 1017.22 1017.31 1017.31 1017.23 1017.51 1017.77 1017.80 1018.10 1018.44 1018.77 1018.48 1017.89 1016.29 1015.53 1014.81 1014.16 1013.74 1013.24 1013.46 1013.77 1014.18 1014.91 1016.03 1016.82 1017.46 1017.78 1017.59 1017.41 1017.47 1017.57 1017.44 1017.05 1016.52 1015.96 1015.35 1015.03 1015.10 1015.57 1015.64 1016.00 1016.30 1016.22 1016.52
1016.93 1016.78 1016.87 1016.99 1016.67 1017.10 1017.28 1017.60 1018.15 1018.53 1019.01 1019.19 1018.73 1018.50 1015.11 1014.51 1014.30 1013.69 1013.08 1013.16 1013.36 1013.87 1014.88 1016.07 1016.86 1017.37 1017.60 1017.66 1017.89 1017.93 1017.86 1017.76 1017.45 1016.87 1016.36 1016.01 1015.75 1015.93 1016.25 1016.37 1016.66 1017.17 1017.25 1017.34
1017.02 1016.44 1016.38 1016.27 1016.61 1016.61 1017.11 1017.67 1018.30 1018.88 1019.49 1019.21 1018.77 1018.79 1014.78 1014.62 1013.80 1013.10 1012.85 1013.13 1013.68 1014.63 1015.49 1016.29 1016.95 1017.35 1017.74 1017.92 1018.18 1018.27 1018.19 1018.18 1017.84 1017.49 1016.98 1016.77 1016.66 1016.77 1017.03 1017.28 1017.52 1017.92 1018.12 1018.14
1017.04 1016.51 1016.18 1015.83 1016.48 1016.45 1016.76 1017.97 1019.24 1020.06 1020.25 1018.99 1018.32 1018.31 1013.98 1013.65 1012.99 1012.82 1012.93 1013.44 1014.15 1015.01 1015.74 1016.57 1017.22 1017.63 1018.02 1018.27 1018.53 1018.61 1018.67 1018.63 1018.39 1018.08 1017.85 1017.61 1017.58 1017.69 1017.88 1018.08 1018.30 1018.43 1018.62 1018.70
1016.68 1016.74 1016.04 1015.66 1015.48 1015.73 1016.20 1016.94 1018.08 1019.33 1019.87 1019.28 1018.60 1016.65 1013.76 1012.54 1011.82 1012.31 1012.34 1013.41 1014.43 1015.26 1015.87 1016.59 1017.20 1017.62 1018.07 1018.39 1018.74 1018.99 1019.03 1019.00 1018.85 1018.66 1018.65 1018.57 1018.41 1018.53 1018.84 1019.01 1019.15 1019.22 1019.29 1019.47
1015.91 1015.83 1015.11 1015.30 1015.29 1015.57 1016.39 1016.50 1017.44 1018.80 1019.89 1019.76 1018.08 1015.73 1013.62 1012.55 1012.26 1012.34 1012.95 1013.81 1014.50 1015.19 1015.84 1016.45 1017.08 1017.64 1018.21 1018.59 1018.88 1019.13 1019.36 1019.46 1019.39 1019.29 1019.21 1019.28 1019.34 1019.41 1019.64 1019.73 1019.77 1019.89 1019.87 1019.89
1014.94 1015.44 1015.13 1015.42 1015.58 1015.57 1015.75 1016.60 1017.78 1018.42 1019.68 1019.65 1017.35 1015.75 1013.37 1012.56 1012.48 1012.93 1013.54 1013.89 1014.57 1015.19 1015.89 1016.49 1017.10 1017.77 1018.43 1018.61 1018.86 1019.11 1019.42 1019.62 1019.72 1019.64 1019.64 1019.91 1020.06 1020.17 1020.34 1020.48 1020.65 1020.67 1020.68 1020.52
1014.68 1014.99 1015.67 1015.44 1015.06 1015.14 1015.79 1016.03 1016.66 1017.30 1018.17 1017.77 1016.69 1014.38 1012.01 1011.58 1011.88 1012.35 1012.74 1013.34 1014.16 1014.87 1015.62 1016.41 1017.21 1017.88 1018.33 1018.69 1018.90 1019.24 1019.55 1019.76 1019.93 1019.99 1020.07 1020.23 1020.49 1020.77 1020.91 1021.06 1021.22 1021.30 1021.29 1021.22
1014.44 1015.01 1015.48 1014.82 1014.61 1014.46 1014.48 1014.58 1015.66 1016.45 1016.75 1016.92 1016.16 1013.32 1011.75 1011.36 1011.50 1011.81 1012.25 1012.91 1013.65 1014.38 1015.35 1016.23 1016.96 1017.64 1018.25 1018.67 1018.88 1019.13 1019.53 1019.81 1019.98 1020.18 1020.53 1020.74 1020.86 1021.09 1021.43 1021.65 1021.73 1021.77 1021.71 1021.63
1013.51 1014.45 1015.30 1015.41 1015.37 1014.88 1014.90 1014.96 1015.17 1015.71 1016.31 1015.93 1015.58 1011.59 1011.57 1011.17 1011.14 1011.46 1012.01 1012.72 1013.42 1014.37 1015.36 1016.02 1016.65 1016.95 1017.41 1018.01 1018.53 1018.95 1019.37 1019.76 1020.02 1020.23 1020.57 1021.04 1021.37 1021.49 1021.73 1021.91 1021.90 1021.93 1021.95 1021.91
1012.85 1013.36 1013.42 1013.11 1013.04 1014.14 1014.59 1014.35 1014.66 1015.15 1015.66 1014.35 1013.98 1011.30 1011.06 1011.38 1011.39 1011.90 1012.20 1012.45 1013.05 1013.81 1014.59 1015.15 1015.75 1016.02 1016.59 1017.37 1018.00 1018.45 1018.97 1019.45 1019.89 1020.29 1020.79 1021.15 1021.46 1021.73 1021.87 1021.99 1022.05 1021.99 1022.17 1022.31
1012.77 1012.97 1013.47 1013.32 1013.69 1013.61 1013.51 1013.84 1014.23 1014.31 1013.41 1013.79 1012.36 1012.08 1009.52 1010.99 1011.02 1011.43 1011.54 1011.71 1012.66 1013.41 1013.78 1014.08 1014.51 1015.04 1015.73 1016.57 1017.39 1018.05 1018.60 1019.20 1019.72 1020.32 1020.79 1021.12 1021.34 1021.54 1021.77 1022.00 1022.17 1022.30 1022.47 1022.57
1012.85 1013.21 1013.50 1013.58 1013.59 1013.82 1014.03 1014.03 1013.50 1012.83 1012.68 1012.85 1011.93 1011.17 1009.23 1009.95 1009.91 1010.53 1010.39 1011.01 1011.75 1012.04 1012.19 1012.57 1013.04 1013.77 1014.36 1015.09 1016.19 1017.25 1018.09 1018.91 1019.61 1020.10 1020.56 1021.02 1021.36 1021.60 1021.89 1022.20 1022.46 1022.58 1022.92 1023.05
1012.64 1013.08 1013.78 1013.68 1013.49 1014.25 1013.92 1012.39 1011.92 1012.25 1011.77 1011.48 1011.16 1009.69 1009.70 1008.72 1008.66 1009.07 1008.83 1009.81 1010.27 1010.33 1010.82 1011.28 1011.45 1011.69 1012.54 1013.68 1014.81 1016.09 1017.32 1018.45 1019.40 1020.13 1020.61 1020.99 1021.34 1021.68 1022.00 1022.35 1022.60 1022.88 1023.08 1023.48
1012.30 1013.05 1013.69 1013.63 1014.12 1013.28 1011.27 1010.68 1010.65 1010.43 1010.18 1010.14 1009.81 1009.19 1007.97 1007.59 1007.37 1007.61 1008.01 1008.59 1008.57 1008.86 1009.01 1009.23 1009.83 1010.88 1011.75 1012.81 1014.19 1015.51 1016.81 1017.99 1019.04 1019.93 1020.50 1020.92 1021.21 1021.60 1021.93 1022.35 1022.61 1022.86 1023.22 1023.17
1012.39 1013.14 1013.60 1013.57 1013.07 1012.20 1011.26 1009.67 1009.33 1009.25 1008.60 1008.72 1008.64 1007.59 1007.23 1007.15 1007.33 1006.96 1006.56 1007.05 1007.79 1007.76 1007.78 1008.06 1008.77 1009.84 1011.22 1012.49 1013.70 1015.04 1016.53 1017.55 1018.57 1019.59 1020.25 1020.78 1021.12 1021.57 1021.85 1022.19 1022.76 1022.97 1023.59 1023.46
1013.44 1013.17 1013.44 1013.46 1012.45 1011.32 1009.37 1007.91 1008.20 1008.83 1008.87 1006.84 1006.43 1007.06 1007.02 1007.19 1007.86 1006.66 1006.13 1006.97 1007.06 1006.89 1006.91 1007.59 1008.58 1010.00 1011.47 1012.73 1013.70 1014.96 1016.23 1017.32 1018.42 1019.19 1019.99 1020.75 1021.17 1021.41 1021.99 1022.36 1022.69 1023.00 1023.49 1023.63
1013.63 1013.55 1012.90 1012.20 1011.35 1010.26 1008.71 1007.76 1008.01 1009.01 1007.16 1006.46 1006.52 1006.69 1007.01 1007.60 1007.37 1006.79 1006.94 1007.34 1007.74 1007.72 1007.91 1007.92 1008.75 1009.84 1011.17 1012.35 1013.41 1014.83 1016.03 1016.87 1017.94 1018.88 1020.08 1021.02 1021.47 1021.79 1022.62 1022.30 1022.85 1023.42 1023.35 1023.53
1012.21 1012.49 1011.76 1011.32 1010.70 1009.55 1007.63 1008.22 1008.23 1006.91 1006.65 1006.70 1006.63 1006.82 1007.22 1007.57 1008.05 1008.29 1008.33 1008.52 1008.90 1008.75 1008.88 1009.23 1010.21 1011.17 1012.03 1012.49 1013.14 1014.45 1015.50 1016.57 1017.70 1018.89 1019.87 1020.82 1021.33 1021.98 1022.51 1022.39 1022.86 1023.75 1023.44 1023.43
1011.80 1010.49 1010.84 1010.85 1009.48 1008.51 1007.77 1007.61 1007.18 1007.19 1007.41 1007.39 1007.60 1007.67 1007.85 1008.17 1008.35 1008.66 1009.05 1009.41 1009.76 1010.19 1010.47 1010.63 1010.77 1011.64 1012.64 1013.40 1013.87 1014.87 1016.03 1016.97 1017.83 1018.91 1019.97 1020.71 1021.34 1021.79 1022.37 1022.57 1023.13 1023.74 1023.66 1023.61
1010.68 1010.08 1010.24 1010.13 1008.59 1008.33 1008.31 1007.93 1008.03 1008.09 1008.16 1007.93 1008.03 1008.22 1008.47 1008.71 1008.81 1008.80 1009.15 1010.04 1010.78 1010.77 1010.85 1011.45 1011.68 1013.01 1013.36 1013.38 1014.27 1015.13 1016.37 1016.96 1017.68 1018.59 1019.77 1020.33 1021.14 1021.93 1022.47 1022.53 1022.93 1023.40 1023.46 1023.74
1010.44 1010.15 1009.65 1008.79 1008.42 1008.82 1008.37 1008.15 1008.20 1008.45 1008.85 1008.89 1008.93 1008.92 1008.84 1008.99 1009.02 1009.75 1010.12 1010.35 1010.99 1011.63 1012.31 1011.76 1011.60 1012.86 1014.33 1014.86 1015.08 1015.56 1016.57 1017.42 1018.05 1019.01 1019.65 1020.27 1020.95 1021.59 1022.08 1022.55 1022.79 1023.20 1023.79 1024.18
1009.96 1009.40 1009.79 1008.07 1008.39 1008.78 1008.15 1008.38 1009.11 1009.52 1009.69 1010.01 1010.11 1009.75 1009.72 1009.68 1009.57 1009.84 1010.03 1010.63 1011.50 1012.21 1012.65 1013.59 1013.73 1012.66 1014.06 1015.40 1016.58 1016.60 1016.90 1017.59 1018.39 1019.06 1019.71 1020.49 1021.00 1021.44 1022.05 1022.43 1022.67 1023.24 1023.53 1023.74
Wind_Speed
4 5 12 9 8 4 3 3 4 3 6 8 8 7 9 8 5 7 8 8 9 9 7 3 7 6 6 7 8 8 8 7 6 3 3 4 4 4 4 6 9 10 7 7
3 14 7 7 8 7 6 6 4 6 4 1 6 10 9 7 7 8 9 11 10 5 5 7 7 7 7 5 6 7 7 7 5 4 3 4 3 3 3 4 8 8 9 8
11 4 14 7 6 8 6 9 3 5 7 4 4 9 8 9 15 16 17 13 9 12 9 7 7 6 5 7 7 7 7 7 5 7 5 3 1 1 1 2 2 1 1 1
10 13 5 11 8 8 9 6 6 4 3 5 2 10 7 8 10 7 15 16 11 9 5 7 7 6 5 5 6 7 6 6 6 7 5 3 0 2 4 6 7 8 11 10
8 10 16 12 11 8 6 6 8 9 6 3 6 6 6 6 7 9 11 11 12 7 11 9 8 7 6 6 5 4 5 6 6 6 6 4 6 6 5 6 10 9 9 11
9 1 10 11 6 7 7 5 5 5 3 10 8 8 7 10 13 7 6 6 8 9 9 8 7 7 6 6 6 5 7 6 7 7 7 9 9 7 6 7 6 5 6 6
4 10 2 3 12 3 7 7 0 3 5 9 4 10 18 6 8 6 9 10 9 9 9 8 8 6 6 6 4 5 6 6 7 8 10 9 9 9 8 6 5 6 5 6
9 5 13 7 8 10 8 13 7 8 5 4 7 11 9 13 14 7 7 9 8 8 8 8 8 7 7 6 5 5 6 6 6 7 8 8 9 6 6 8 6 6 6 5
8 7 4 5 4 11 7 14 6 3 3 2 5 8 9 5 5 5 7 8 10 9 9 10 8 7 7 6 6 6 6 5 6 6 6 7 7 8 6 7 6 5 4 5
5 1 4 7 5 6 7 6 6 5 4 4 8 7 10 2 6 5 7 10 8 8 8 8 7 8 6 6 6 7 6 6 5 6 5 5 6 6 6 6 6 6 5 5
3 4 1 7 9 14 7 8 6 4 7 6 3 8 8 14 10 10 11 7 9 10 10 9 8 7 7 6 6 6 6 6 5 5 5 6 6 6 6 5 5 5 5 5
8 5 5 13 2 9 19 13 14 6 7 6 6 12 4 7 3 7 9 10 9 9 9 9 9 9 8 8 7 7 6 6 5 6 5 5 6 6 6 5 5 5 5 6
13 5 3 2 3 3 7 12 12 14 0 10 5 18 7 11 13 8 8 7 7 8 9 9 10 12 11 9 7 7 7 6 6 6 6 6 5 5 5 5 5 5 5 6
16 5 13 18 6 8 8 12 16 16 11 19 16 29 20 9 7 2 2 7 8 11 14 14 12 12 11 10 9 9 8 6 6 6 6 6 5 5 5 5 5 5 5 6
11 9 13 16 4 3 8 16 16 18 25 18 22 20 27 16 13 11 12 10 7 11 14 14 13 13 12 12 11 9 8 7 7 7 7 6 6 6 5 5 5 5 5 6
5 5 6 7 7 9 8 6 12 22 19 16 22 23 25 18 15 7 14 10 11 14 17 18 16 15 16 17 15 12 10 8 8 8 7 7 6 6 6 5 5 6 5 5
12 6 5 8 3 4 8 22 23 16 17 16 17 24 19 22 20 17 18 12 15 17 16 18 19 21 18 18 16 16 13 9 8 8 7 7 7 6 6 5 5 6 6 5
7 12 5 9 4 11 11 8 19 23 22 21 23 25 27 24 22 18 11 10 16 15 19 20 16 13 15 16 14 13 13 11 9 8 8 8 8 8 7 7 7 6 4 6
3 5 4 8 13 7 9 13 10 12 22 17 21 26 25 23 17 18 17 13 13 16 15 17 15 13 10 15 15 15 13 12 11 9 9 8 7 8 7 8 6 5 5 5
1 3 7 2 9 14 17 25 9 5 6 21 23 20 20 17 12 17 15 7 11 14 10 10 9 8 13 12 15 15 13 12 11 9 9 8 7 7 8 8 7 4 4 6
7 6 14 14 14 7 11 7 6 10 15 6 11 14 12 8 9 9 6 6 4 3 3 7 13 15 14 15 15 14 13 12 11 10 9 7 7 7 6 7 5 4 6 6
11 7 10 7 10 14 8 3 11 6 2 2 1 5 6 6 7 8 6 5 4 5 7 7 10 10 10 13 14 14 14 12 12 11 10 8 7 6 6 7 6 5 5 7
3 9 6 9 8 7 6 7 5 5 6 5 4 7 9 8 7 7 7 6 6 4 4 5 10 12 9 8 10 13 11 12 12 11 9 8 7 7 6 7 6 4 5 5
4 3 5 1 10 8 8 8 7 5 7 6 4 4 6 6 6 8 5 5 5 6 8 7 10 8 8 8 9 10 12 12 12 11 10 9 7 7 6 6 6 5 4 5
7 6 5 14 10 8 11 9 4 3 4 5 6 3 4 4 8 6 6 7 6 5 4 9 12 10 8 7 10 11 11 11 11 10 9 9 7 8 7 5 5 5 4 5
5 13 9 17 14 9 11 2 1 4 3 3 4 5 4 5 7 5 6 5 5 6 5 4 4 13 11 10 8 8 9 9 10 9 8 7 6 6 6 6 6 10 8 9
Wind_Direction
208 169 202 192 192 203 196 204 211 279 290 221 224 231 238 248 276 263 259 257 241 251 255 77 87 73 66 42 38 25 10 354 351 334 325 280 220 195 205 208 212 209 206 226
168 225 197 187 201 207 234 257 263 286 260 234 280 267 257 248 248 237 228 234 236 246 227 130 104 72 59 52 33 22 12 2 357 347 297 253 250 216 177 186 200 192 188 197
206 242 187 193 193 190 214 222 203 234 311 265 322 275 252 246 244 249 241 231 215 215 212 155 115 94 68 49 29 25 23 4 350 332 310 303 266 350 120 164 146 144 190 257
238 246 206 208 216 178 226 184 212 249 304 255 94 282 266 283 270 259 240 231 221 213 135 134 129 102 96 66 44 37 29 5 350 335 338 327 191 128 33 66 70 64 59 49
215 188 216 222 211 186 227 173 219 214 211 261 255 294 281 254 297 255 236 228 226 192 142 140 131 122 92 73 59 51 50 20 355 1 17 20 62 73 63 70 72 60 53 48
224 221 196 202 185 180 153 93 48 42 81 249 219 215 219 233 241 253 225 210 154 130 124 115 111 103 87 65 54 51 52 24 16 22 31 51 55 64 65 57 72 67 64 50
183 232 227 169 196 143 150 121 341 209 212 238 212 206 247 260 261 235 219 177 160 143 136 139 132 118 106 87 69 78 62 41 29 34 37 44 60 63 67 70 67 69 59 46
181 205 195 190 199 196 182 178 166 196 212 238 188 235 248 222 243 207 179 160 146 149 149 145 148 141 135 114 99 91 78 60 50 52 43 41 51 66 63 65 71 63 66 53
177 247 159 199 155 155 200 207 175 61 10 61 236 293 302 212 220 155 160 157 176 169 162 156 150 143 136 138 131 125 109 83 64 64 58 51 52 60 63 54 59 57 42 64
200 145 197 170 135 242 176 143 182 204 210 250 247 244 237 358 242 215 199 205 186 172 163 157 145 147 159 150 139 125 122 114 106 89 77 67 61 61 60 57 55 52 42 45
227 119 262 126 197 184 174 187 210 179 199 204 249 250 219 227 237 215 226 206 187 183 173 164 160 163 159 156 153 146 139 129 113 99 97 91 80 68 63 64 51 53 50 44
191 163 188 203 229 218 210 192 187 193 220 236 268 260 166 141 120 194 231 199 197 180 165 168 169 167 169 172 170 161 147 134 132 123 102 90 90 84 76 66 57 50 57 49
175 202 124 342 295 297 212 221 217 208 143 227 241 262 203 273 264 223 215 206 185 159 172 180 179 185 180 180 172 160 152 152 141 127 121 109 98 95 95 87 72 66 73 69
170 168 211 223 204 142 202 209 214 218 230 240 229 256 254 257 295 277 258 224 192 181 188 194 194 193 184 182 173 167 164 160 148 133 129 125 121 119 110 103 93 85 82 88
172 214 217 242 206 186 206 211 214 218 228 227 249 241 262 256 250 251 232 227 187 201 204 203 199 195 188 179 174 171 162 160 153 147 146 145 137 126 117 112 102 88 94 96
210 242 156 259 238 226 245 230 228 231 242 251 250 260 266 270 260 221 243 242 220 214 212 207 205 196 193 186 179 172 166 162 157 156 153 144 137 130 124 118 118 108 100 94
180 175 142 239 226 117 240 233 235 235 232 235 245 254 265 265 259 254 252 227 220 226 219 216 209 206 198 188 173 175 163 150 151 151 150 146 138 129 127 125 113 112 107 99
173 203 189 240 87 240 244 203 217 230 235 236 244 251 253 256 262 258 252 214 232 228 224 226 220 206 194 181 172 149 150 152 151 150 152 150 148 146 141 137 134 127 126 121
149 160 204 230 231 284 299 254 202 204 243 242 239 244 250 262 268 273 257 239 236 242 233 224 211 198 164 168 158 146 148 149 153 160 161 161 153 149 146 143 141 128 134 120
128 354 206 150 229 233 242 251 206 117 257 245 233 242 246 251 263 265 282 254 234 229 226 207 153 135 148 155 149 146 150 152 160 158 159 158 156 146 153 150 135 126 145 130
187 211 225 227 237 242 249 236 89 160 238 287 227 234 236 221 233 266 317 252 323 326 165 122 145 159 157 150 148 148 149 157 151 141 134 140 143 140 151 126 125 145 134 123
182 187 218 219 241 247 222 95 197 246 259 217 205 184 201 227 266 274 262 251 243 167 130 129 129 134 141 149 148 150 155 140 134 134 141 152 147 149 158 135 135 166 154 132
242 193 179 178 213 231 237 228 230 197 224 242 200 224 222 237 244 234 255 229 199 155 123 122 132 134 138 144 151 147 141 139 136 137 144 144 145 143 148 148 150 162 141 126
279 158 215 30 245 243 261 256 251 223 233 273 255 217 194 244 277 276 244 212 211 170 149 137 133 141 146 145 146 136 144 142 140 143 150 146 146 150 165 157 153 152 135 124
193 158 217 254 268 291 267 256 239 264 283 295 305 281 273 276 269 248 253 211 190 184 165 162 150 142 144 128 126 133 136 140 144 148 151 154 155 159 148 139 141 135 137 156
186 245 236 258 264 230 260 151 135 277 288 319 296 306 273 259 273 285 257 175 156 156 150 165 161 139 135 127 119 117 131 144 149 148 150 153 154 155 150 149 138 150 148 149